Location: Newark
(34.0131°N, 4.3314°W)
Time: 18:58:26
(UTC+00:00)

A-11 Canister half - Pass Details

Date: 29 October 2019
Orbit: 1514 x 1685 km, 47.2° (Epoch: 19 November)

Event Time Altitude Azimuth Distance (km) Brightness Sun altitude
Rises 00:16:21 0° 249° (WSW) 4,931 - -69.0°
Reaches altitude 10° 00:19:37 10° 252° (WSW) 3,939 - -68.9°
Maximum altitude 00:29:37 61° 332° (NNW) 1,844 - -68.3°
Drops below altitude 10° 00:39:23 10° 52° (NE) 3,847 - -67.5°
Exits shadow 00:40:48 - 54° (NE) 4,277 11.5 -67.4°
Sets 00:42:32 0° 56° (NE) 4,811 11.9 -67.2°
